Regional Weather Roundup
Issued by NWS Cleveland, OH

Home | Current Version | Previous Version | Graphics & Text | Print | Product List | Glossary On
Versions: 1 2 3 4 5 6 7 8 9 10 11 12 13 14 15 16 17 18 19 20 21 22 23 24 25 26 27 28 29 30 31 32 33 34 35 36 37 38 39 40 41 42 43 44 45 46 47 48 49 50
000
ASUS41 KCLE 271010
RWRCLE
OHIO REGIONAL WEATHER ROUNDUP
NATIONAL WEATHER SERVICE WILMINGTON, OH
600 AM EDT THU APR 27 2017

NOTE: "FAIR" INDICATES FEW OR NO CLOUDS BELOW 12,000 FEET WITH NO
SIGNIFICANT WEATHER AND/OR OBSTRUCTIONS TO VISIBILITY.

OHZ001>008-015>018-024>027-034-035-043-044-271100-
   NORTHWEST OHIO

CITY           SKY/WX    TMP DP  RH WIND       PRES   REMARKS
DEFIANCE       FAIR      66  54  65 SW13G28   29.49R
FINDLAY        MOCLDY    71  54  54 S17       29.53R
TOLEDO EXPRESS FAIR      68  54  60 S9        29.50R
TOLEDO EXEC    FAIR      68  55  63 S16       29.52S
LIMA           CLOUDY    71  56  58 SW17G26   29.54R
$$

OHZ009>014-019>023-028>033-038-089-271100-
   NORTHEAST OHIO

CITY           SKY/WX    TMP DP  RH WIND       PRES   REMARKS
CLE-HOPKINS    MOCLDY    73  50  44 S17G24    29.61R
CLE-LAKEFRONT  FAIR      70  52  52 S13       29.59R
CUY CO. ARPT   NOT AVBL
LORAIN-ELYRIA  FAIR      65  50  58 S13       29.59R
ASHTABULA      FAIR      64  56  75 S13       29.63F
AKRON-CANTON   FAIR      63  52  67 S8        29.64R
WOOSTER        FAIR      65  52  62 S9        29.63R
MANSFIELD      FAIR      67  53  61 S14       29.62R
YOUNGSTOWN     FAIR      62  54  74 SE9       29.65F
$$

OHZ042-051>053-060>062-070>072-077>081-271100-
  SOUTHWEST OHIO

CITY           SKY/WX    TMP DP  RH WIND       PRES   REMARKS
CINC-COVINGTON CLOUDY    64  52  64 SE12      29.57F
CINC-LUNKEN    FAIR      66  54  65 SW10      29.59S
HAMILTON       FAIR      66  55  67 S3        29.57F
DAYTON         CLOUDY    65  54  67 SW16      29.57S
WRIGHT-PAT AFB NOT AVBL
DAYTON GENERAL FAIR      68  55  63 W8G17     29.57S
WILMINGTON     CLOUDY    68  57  68 S14       29.60S
$$

OHZ036-037-039>041-045>050-054>059-063>069-073>076-082>088-271100-
  CENTRAL AND SOUTHEAST OHIO

CITY           SKY/WX    TMP DP  RH WIND       PRES   REMARKS
COLUMBUS       CLOUDY    66  53  63 SE5       29.62S
OSU AIRPORT    MOCLDY    69  55  60 S9        29.61S
BOLTON FIELD   CLOUDY    66  55  67 S7        29.62S
RICKENBACK AFB FAIR      63  53  69 S8        29.62S
NEWARK         FAIR      64  51  62 S6        29.63S
MARION         FAIR      70  54  56 S17G30    29.60S
LANCASTER      FAIR      63  52  67 CALM      29.64R
ZANESVILLE     FAIR      63  54  72 S6        29.66R
NEW PHILLY     FAIR      60  54  80 CALM      29.66R
$$



USA.gov is the U.S. government's official web portal to all federal, state and local government web resources and services.